Time,TemperatureF,DewpointF,PressureIn,WindDirection,WindDirectionDegrees,WindSpeedMPH,WindSpeedGustMPH,Humidity,HourlyPrecipIn,Conditions,Clouds,dailyrainin,SoftwareType,DateUTC
2013-06-08 00:00:00,78.4,68.6,29.80,SW,218,0.0,0.0,72,0.00,,---,0.65,VWS V14.01,2013-06-08 04:00:00,
2013-06-08 00:01:00,77.3,68.4,29.84,SW,222,0.0,0.0,74,0.00,,---,0.00,VWS V14.01,2013-06-08 04:01:00,
2013-06-08 00:06:00,77.4,68.5,29.84,SW,236,0.0,0.0,74,0.00,,---,0.00,VWS V14.01,2013-06-08 04:06:00,
2013-06-08 00:11:00,77.3,68.4,29.84,SW,223,0.0,0.0,74,0.00,,---,0.00,VWS V14.01,2013-06-08 04:11:00,
2013-06-08 00:16:00,77.3,68.4,29.85,SW,217,0.0,0.0,74,0.00,,---,0.00,VWS V14.01,2013-06-08 04:16:00,
2013-06-08 00:21:00,77.4,68.5,29.85,SW,217,0.0,0.0,74,0.00,,---,0.00,VWS V14.01,2013-06-08 04:21:00,
2013-06-08 00:26:00,77.3,68.4,29.84,SW,226,0.0,0.0,74,0.00,,---,0.00,VWS V14.01,2013-06-08 04:26:00,
2013-06-08 00:30:00,77.8,68.5,29.81,WSW,245,0.0,0.0,73,0.00,,---,0.65,VWS V14.01,2013-06-08 04:30:00,
2013-06-08 00:31:00,77.3,68.8,29.84,SSW,213,0.0,0.0,75,0.00,,---,0.00,VWS V14.01,2013-06-08 04:31:00,
2013-06-08 00:36:00,77.2,68.7,29.85,SSW,212,0.0,0.0,75,0.00,,---,0.00,VWS V14.01,2013-06-08 04:36:00,
2013-06-08 00:41:00,77.1,68.6,29.85,SW,221,0.0,0.0,75,0.00,,---,0.00,VWS V14.01,2013-06-08 04:41:00,
2013-06-08 00:46:00,77.1,68.6,29.85,SW,228,0.0,0.0,75,0.00,,---,0.00,VWS V14.01,2013-06-08 04:46:00,
2013-06-08 00:51:00,77.0,68.9,29.85,SW,214,0.0,0.0,76,0.00,,---,0.00,VWS V14.01,2013-06-08 04:51:00,
2013-06-08 00:56:00,77.0,68.9,29.85,SSW,212,0.0,0.0,76,0.00,,---,0.00,VWS V14.01,2013-06-08 04:56:00,
2013-06-08 01:00:00,77.6,68.3,29.83,SW,227,0.0,0.0,73,0.00,,---,0.65,VWS V14.01,2013-06-08 05:00:00,
2013-06-08 01:02:00,76.9,68.8,29.85,SW,218,0.0,0.0,76,0.00,,---,0.00,VWS V14.01,2013-06-08 05:02:00,
2013-06-08 01:07:00,76.8,68.7,29.85,SW,220,0.0,0.0,76,0.00,,---,0.00,VWS V14.01,2013-06-08 05:07:00,
2013-06-08 01:12:00,76.9,68.8,29.85,SW,217,0.0,0.0,76,0.00,,---,0.00,VWS V14.01,2013-06-08 05:12:00,
2013-06-08 01:17:00,76.9,68.8,29.85,SW,221,0.0,0.0,76,0.00,,---,0.00,VWS V14.01,2013-06-08 05:17:00,
2013-06-08 01:22:00,76.9,68.8,29.85,SW,217,0.0,0.0,76,0.00,,---,0.00,VWS V14.01,2013-06-08 05:22:00,
2013-06-08 01:27:00,76.9,69.2,29.85,WSW,242,0.0,0.0,77,0.00,,---,0.00,VWS V14.01,2013-06-08 05:27:00,
2013-06-08 01:30:00,77.6,68.3,29.84,SW,223,0.0,0.0,73,0.00,,---,0.65,VWS V14.01,2013-06-08 05:30:00,
2013-06-08 01:32:00,76.9,69.2,29.84,SW,216,0.0,0.0,77,0.00,,---,0.00,VWS V14.01,2013-06-08 05:32:00,
2013-06-08 01:37:00,76.8,69.1,29.84,SW,221,0.0,0.0,77,0.00,,---,0.00,VWS V14.01,2013-06-08 05:37:00,
2013-06-08 01:42:00,76.8,69.1,29.84,SW,226,0.0,0.0,77,0.00,,---,0.00,VWS V14.01,2013-06-08 05:42:00,
2013-06-08 01:47:00,76.8,69.1,29.85,SW,220,0.0,0.0,77,0.00,,---,0.00,VWS V14.01,2013-06-08 05:47:00,
2013-06-08 01:52:00,76.8,68.7,29.85,SW,220,0.0,0.0,76,0.00,,---,0.00,VWS V14.01,2013-06-08 05:52:00,
2013-06-08 01:57:00,76.8,68.7,29.85,SW,218,0.0,0.0,76,0.00,,---,0.00,VWS V14.01,2013-06-08 05:57:00,
2013-06-08 02:00:00,77.6,68.3,29.84,SW,234,0.0,0.0,73,0.00,,---,0.65,VWS V14.01,2013-06-08 06:00:00,
2013-06-08 02:02:00,76.7,68.6,29.85,WSW,240,0.0,0.0,76,0.00,,---,0.00,VWS V14.01,2013-06-08 06:02:00,
2013-06-08 02:07:00,76.8,68.7,29.85,SW,215,0.0,0.0,76,0.00,,---,0.00,VWS V14.01,2013-06-08 06:07:00,
2013-06-08 02:12:00,76.7,68.6,29.85,SSW,213,0.0,0.0,76,0.00,,---,0.00,VWS V14.01,2013-06-08 06:12:00,
2013-06-08 02:17:00,76.8,68.7,29.85,SW,234,0.0,0.0,76,0.00,,---,0.00,VWS V14.01,2013-06-08 06:17:00,
2013-06-08 02:22:00,76.8,68.7,29.85,WSW,245,0.0,0.0,76,0.00,,---,0.00,VWS V14.01,2013-06-08 06:22:00,
2013-06-08 02:27:00,76.9,68.8,29.85,WSW,238,0.0,0.0,76,0.00,,---,0.00,VWS V14.01,2013-06-08 06:27:00,
2013-06-08 02:30:00,77.5,68.2,29.84,SW,232,0.0,0.0,73,0.00,,---,0.65,VWS V14.01,2013-06-08 06:30:00,
2013-06-08 02:32:00,76.9,68.8,29.85,SW,223,0.0,0.0,76,0.00,,---,0.00,VWS V14.01,2013-06-08 06:32:00,
2013-06-08 02:37:00,76.9,68.8,29.85,SSW,213,0.0,0.0,76,0.00,,---,0.00,VWS V14.01,2013-06-08 06:37:00,
2013-06-08 02:42:00,76.9,68.8,29.85,SW,233,0.0,0.0,76,0.00,,---,0.00,VWS V14.01,2013-06-08 06:42:00,
2013-06-08 02:47:00,76.9,68.8,29.85,SW,222,0.0,0.0,76,0.00,,---,0.00,VWS V14.01,2013-06-08 06:47:00,
2013-06-08 02:52:00,76.8,68.7,29.85,SW,227,0.0,0.0,76,0.00,,---,0.00,VWS V14.01,2013-06-08 06:52:00,
2013-06-08 02:57:00,76.8,68.7,29.85,SW,231,0.0,0.0,76,0.00,,---,0.00,VWS V14.01,2013-06-08 06:57:00,
2013-06-08 03:00:00,77.3,68.4,29.84,SW,224,0.0,0.0,74,0.00,,---,0.65,VWS V14.01,2013-06-08 07:00:00,
2013-06-08 03:02:00,76.9,68.8,29.85,SSW,208,0.0,0.0,76,0.00,,---,0.00,VWS V14.01,2013-06-08 07:02:00,
2013-06-08 03:07:00,76.9,68.8,29.85,SW,224,0.0,0.0,76,0.00,,---,0.00,VWS V14.01,2013-06-08 07:07:00,
2013-06-08 03:12:00,76.9,68.8,29.85,WSW,249,0.0,0.0,76,0.00,,---,0.00,VWS V14.01,2013-06-08 07:12:00,
2013-06-08 03:17:00,76.9,68.8,29.85,SSW,209,0.0,0.0,76,0.00,,---,0.00,VWS V14.01,2013-06-08 07:17:00,
2013-06-08 03:22:00,76.9,68.8,29.85,SW,229,0.0,0.0,76,0.00,,---,0.00,VWS V14.01,2013-06-08 07:22:00,
2013-06-08 03:27:00,76.9,68.8,29.85,WSW,246,0.0,0.0,76,0.00,,---,0.00,VWS V14.01,2013-06-08 07:27:00,
2013-06-08 03:30:00,77.3,68.8,29.84,SW,229,0.0,0.0,75,0.00,,---,0.00,VWS V14.01,2013-06-08 07:30:00,
2013-06-08 03:32:00,76.9,68.8,29.85,SW,219,0.0,0.0,76,0.00,,---,0.00,VWS V14.01,2013-06-08 07:32:00,
2013-06-08 03:37:00,77.0,68.9,29.85,SSW,211,0.0,0.0,76,0.00,,---,0.00,VWS V14.01,2013-06-08 07:37:00,
2013-06-08 03:42:00,76.9,68.8,29.85,SW,219,0.0,0.0,76,0.00,,---,0.00,VWS V14.01,2013-06-08 07:42:00,
2013-06-08 03:47:00,76.8,68.7,29.85,SW,234,0.0,0.0,76,0.00,,---,0.00,VWS V14.01,2013-06-08 07:47:00,
2013-06-08 03:52:00,76.7,68.9,29.85,SSW,210,0.0,0.0,77,0.00,,---,0.00,VWS V14.01,2013-06-08 07:52:00,
2013-06-08 03:57:00,76.7,68.9,29.85,SW,216,0.0,0.0,77,0.00,,---,0.00,VWS V14.01,2013-06-08 07:57:00,
2013-06-08 04:00:00,76.9,68.8,29.85,SW,222,0.0,0.0,76,0.00,,---,0.00,VWS V14.01,2013-06-08 08:00:00,
2013-06-08 04:02:00,76.7,68.9,29.85,SW,230,0.0,0.0,77,0.00,,---,0.00,VWS V14.01,2013-06-08 08:02:00,
2013-06-08 04:07:00,76.7,68.9,29.84,SW,219,0.0,0.0,77,0.00,,---,0.00,VWS V14.01,2013-06-08 08:07:00,
2013-06-08 04:12:00,76.7,68.9,29.84,SSW,210,0.0,0.0,77,0.00,,---,0.00,VWS V14.01,2013-06-08 08:12:00,
2013-06-08 04:17:00,76.7,68.9,29.85,SW,215,0.0,0.0,77,0.00,,---,0.00,VWS V14.01,2013-06-08 08:17:00,
2013-06-08 04:22:00,76.7,69.3,29.85,WSW,242,0.0,0.0,78,0.00,,---,0.00,VWS V14.01,2013-06-08 08:22:00,
2013-06-08 04:27:00,76.7,69.3,29.85,SW,227,0.0,0.0,78,0.00,,---,0.00,VWS V14.01,2013-06-08 08:27:00,
2013-06-08 04:30:00,76.9,69.2,29.84,SW,221,0.0,0.0,77,0.00,,---,0.00,VWS V14.01,2013-06-08 08:30:00,
2013-06-08 04:32:00,76.7,69.3,29.86,SW,236,0.0,0.0,78,0.00,,---,0.00,VWS V14.01,2013-06-08 08:32:00,
2013-06-08 04:37:00,76.7,69.3,29.86,SW,229,0.0,0.0,78,0.00,,---,0.00,VWS V14.01,2013-06-08 08:37:00,
2013-06-08 04:42:00,76.7,69.3,29.87,SW,220,0.0,0.0,78,0.00,,---,0.00,VWS V14.01,2013-06-08 08:42:00,
2013-06-08 04:47:00,76.7,69.3,29.87,SW,214,0.0,0.0,78,0.00,,---,0.00,VWS V14.01,2013-06-08 08:47:00,
2013-06-08 04:52:00,76.7,69.3,29.87,SW,236,0.0,0.0,78,0.00,,---,0.00,VWS V14.01,2013-06-08 08:52:00,
2013-06-08 04:57:00,76.7,69.3,29.87,SSW,211,0.0,0.0,78,0.00,,---,0.00,VWS V14.01,2013-06-08 08:57:00,
2013-06-08 05:00:00,76.8,68.7,29.85,SSW,205,0.0,0.0,76,0.00,,---,0.00,VWS V14.01,2013-06-08 09:00:00,
2013-06-08 05:02:00,76.6,69.2,29.87,SW,231,0.0,0.0,78,0.00,,---,0.00,VWS V14.01,2013-06-08 09:02:00,
2013-06-08 05:07:00,76.6,69.2,29.87,SW,229,0.0,0.0,78,0.00,,---,0.00,VWS V14.01,2013-06-08 09:07:00,
2013-06-08 05:12:00,76.6,69.2,29.87,SSW,199,0.0,0.0,78,0.00,,---,0.00,VWS V14.01,2013-06-08 09:12:00,
2013-06-08 05:17:00,76.5,69.5,29.87,WSW,249,0.0,0.0,79,0.00,,---,0.00,VWS V14.01,2013-06-08 09:17:00,
2013-06-08 05:22:00,76.5,69.5,29.87,SW,229,0.0,0.0,79,0.00,,---,0.00,VWS V14.01,2013-06-08 09:22:00,
2013-06-08 05:27:00,76.4,69.4,29.87,SW,217,0.0,0.0,79,0.00,,---,0.00,VWS V14.01,2013-06-08 09:27:00,
2013-06-08 05:30:00,76.9,68.8,29.85,SW,236,0.0,0.0,76,0.00,,---,0.00,VWS V14.01,2013-06-08 09:30:00,
2013-06-08 05:32:00,76.4,69.4,29.86,SSW,213,0.0,0.0,79,0.00,,---,0.00,VWS V14.01,2013-06-08 09:32:00,
2013-06-08 05:37:00,76.3,69.3,29.87,SW,219,0.0,0.0,79,0.00,,---,0.00,VWS V14.01,2013-06-08 09:37:00,
2013-06-08 05:42:00,76.3,69.3,29.87,SW,217,0.0,0.0,79,0.00,,---,0.00,VWS V14.01,2013-06-08 09:42:00,
2013-06-08 05:47:00,76.2,69.2,29.87,SW,228,0.0,0.0,79,0.00,,---,0.00,VWS V14.01,2013-06-08 09:47:00,
2013-06-08 05:52:00,76.2,69.2,29.87,SW,224,0.0,0.0,79,0.00,,---,0.00,VWS V14.01,2013-06-08 09:52:00,
2013-06-08 05:57:00,76.1,69.1,29.88,SW,219,0.0,0.0,79,0.00,,---,0.00,VWS V14.01,2013-06-08 09:57:00,
2013-06-08 06:00:00,76.9,68.8,29.85,SW,223,0.0,0.0,76,0.00,,---,0.00,VWS V14.01,2013-06-08 10:00:00,
2013-06-08 06:02:00,76.1,69.5,29.87,SW,219,0.0,0.0,80,0.00,,---,0.00,VWS V14.01,2013-06-08 10:02:00,
2013-06-08 06:07:00,76.1,69.5,29.88,SSW,208,0.0,0.0,80,0.00,,---,0.00,VWS V14.01,2013-06-08 10:07:00,
2013-06-08 06:12:00,76.0,69.4,29.88,SW,224,0.0,0.0,80,0.00,,---,0.00,VWS V14.01,2013-06-08 10:12:00,
2013-06-08 06:17:00,76.0,69.4,29.88,SW,227,0.0,0.0,80,0.00,,---,0.00,VWS V14.01,2013-06-08 10:17:00,
2013-06-08 06:22:00,76.0,69.4,29.88,SW,217,0.0,0.0,80,0.00,,---,0.00,VWS V14.01,2013-06-08 10:22:00,
2013-06-08 06:27:00,76.1,69.5,29.88,SSW,207,0.0,0.0,80,0.00,,---,0.00,VWS V14.01,2013-06-08 10:27:00,
2013-06-08 06:30:00,76.9,68.8,29.85,WSW,239,0.0,0.0,76,0.00,,---,0.00,VWS V14.01,2013-06-08 10:30:00,
2013-06-08 06:32:00,76.1,69.5,29.88,SW,227,0.0,0.0,80,0.00,,---,0.00,VWS V14.01,2013-06-08 10:32:00,
2013-06-08 06:37:00,76.2,69.6,29.89,SW,235,0.0,0.0,80,0.00,,---,0.00,VWS V14.01,2013-06-08 10:37:00,
2013-06-08 06:42:00,76.2,69.6,29.89,SW,226,0.0,0.0,80,0.00,,---,0.00,VWS V14.01,2013-06-08 10:42:00,
2013-06-08 06:47:00,76.2,69.6,29.89,SW,236,0.0,0.0,80,0.00,,---,0.00,VWS V14.01,2013-06-08 10:47:00,
2013-06-08 06:52:00,76.2,69.6,29.89,WSW,237,0.0,0.0,80,0.00,,---,0.00,VWS V14.01,2013-06-08 10:52:00,
2013-06-08 06:57:00,76.4,69.8,29.89,SW,236,0.0,0.0,80,0.00,,---,0.00,VWS V14.01,2013-06-08 10:57:00,
2013-06-08 07:00:00,76.7,68.9,29.85,WSW,243,0.0,0.0,77,0.00,,---,0.00,VWS V14.01,2013-06-08 11:00:00,
2013-06-08 07:02:00,76.5,69.9,29.89,SW,232,0.0,0.0,80,0.00,,---,0.00,VWS V14.01,2013-06-08 11:02:00,
2013-06-08 07:07:00,76.7,70.1,29.89,WSW,244,0.0,0.0,80,0.00,,---,0.00,VWS V14.01,2013-06-08 11:07:00,
2013-06-08 07:12:00,76.9,70.3,29.90,WSW,238,0.0,0.0,80,0.00,,---,0.00,VWS V14.01,2013-06-08 11:12:00,
2013-06-08 07:17:00,77.0,70.0,29.89,WSW,246,0.0,0.0,79,0.00,,---,0.00,VWS V14.01,2013-06-08 11:17:00,
2013-06-08 07:22:00,77.2,69.8,29.90,WSW,248,0.0,0.0,78,0.00,,---,0.00,VWS V14.01,2013-06-08 11:22:00,
2013-06-08 07:27:00,77.3,69.9,29.90,WSW,244,0.0,0.0,78,0.00,,---,0.00,VWS V14.01,2013-06-08 11:27:00,
2013-06-08 07:30:00,76.7,69.3,29.86,SW,220,0.0,0.0,78,0.00,,---,0.00,VWS V14.01,2013-06-08 11:30:00,
2013-06-08 07:32:00,77.5,69.7,29.90,SW,220,0.0,0.0,77,0.00,,---,0.00,VWS V14.01,2013-06-08 11:32:00,
2013-06-08 07:37:00,77.7,69.5,29.90,SSW,212,0.0,0.0,76,0.00,,---,0.00,VWS V14.01,2013-06-08 11:37:00,
2013-06-08 07:42:00,77.9,69.3,29.90,WSW,249,0.0,0.0,75,0.00,,---,0.00,VWS V14.01,2013-06-08 11:42:00,
2013-06-08 07:47:00,78.2,69.6,29.91,WSW,244,0.0,0.0,75,0.00,,---,0.00,VWS V14.01,2013-06-08 11:47:00,
2013-06-08 07:52:00,78.3,69.3,29.91,WSW,242,0.0,0.0,74,0.00,,---,0.00,VWS V14.01,2013-06-08 11:52:00,
2013-06-08 07:57:00,78.5,69.1,29.91,SW,223,0.0,0.0,73,0.00,,---,0.00,VWS V14.01,2013-06-08 11:57:00,
2013-06-08 08:00:00,76.6,69.2,29.87,SW,229,0.0,0.0,78,0.00,,---,0.00,VWS V14.01,2013-06-08 12:00:00,
2013-06-08 08:02:00,78.6,68.8,29.91,SW,229,0.0,0.0,72,0.00,,---,0.00,VWS V14.01,2013-06-08 12:02:00,
2013-06-08 08:07:00,78.8,69.0,29.92,West,267,0.0,0.0,72,0.00,,---,0.00,VWS V14.01,2013-06-08 12:07:00,
2013-06-08 08:12:00,78.9,68.7,29.92,SW,231,0.0,0.0,71,0.00,,---,0.00,VWS V14.01,2013-06-08 12:12:00,
2013-06-08 08:17:00,79.1,68.9,29.92,WSW,254,0.0,0.0,71,0.00,,---,0.00,VWS V14.01,2013-06-08 12:17:00,
2013-06-08 08:22:00,79.2,68.6,29.92,WSW,242,0.0,0.0,70,0.00,,---,0.00,VWS V14.01,2013-06-08 12:22:00,
2013-06-08 08:27:00,79.3,68.7,29.93,SW,225,0.0,0.0,70,0.00,,---,0.00,VWS V14.01,2013-06-08 12:27:00,
2013-06-08 08:30:00,76.4,69.4,29.86,SSW,213,0.0,0.0,79,0.00,,---,0.00,VWS V14.01,2013-06-08 12:30:00,
2013-06-08 08:32:00,79.4,68.3,29.93,SW,223,0.0,0.0,69,0.00,,---,0.00,VWS V14.01,2013-06-08 12:32:00,
2013-06-08 08:37:00,79.5,68.4,29.93,WSW,244,0.0,0.0,69,0.00,,---,0.00,VWS V14.01,2013-06-08 12:37:00,
2013-06-08 08:42:00,79.7,68.6,29.93,SW,234,0.0,0.0,69,0.00,,---,0.00,VWS V14.01,2013-06-08 12:42:00,
2013-06-08 08:47:00,79.8,68.3,29.93,West,277,0.0,0.0,68,0.00,,---,0.00,VWS V14.01,2013-06-08 12:47:00,
2013-06-08 08:52:00,79.8,68.3,29.94,SW,236,0.0,0.0,68,0.00,,---,0.00,VWS V14.01,2013-06-08 12:52:00,
2013-06-08 08:57:00,79.8,67.9,29.94,WSW,238,0.0,0.0,67,0.00,,---,0.00,VWS V14.01,2013-06-08 12:57:00,
2013-06-08 09:00:00,76.1,69.5,29.88,SW,227,0.0,0.0,80,0.00,,---,0.00,VWS V14.01,2013-06-08 13:00:00,
2013-06-08 09:02:00,79.8,67.9,29.94,West,268,0.0,0.0,67,0.00,,---,0.00,VWS V14.01,2013-06-08 13:02:00,
2013-06-08 09:07:00,80.0,68.1,29.95,WSW,242,0.0,0.0,67,0.00,,---,0.00,VWS V14.01,2013-06-08 13:07:00,
2013-06-08 09:12:00,80.0,68.1,29.94,West,260,0.0,0.0,67,0.00,,---,0.00,VWS V14.01,2013-06-08 13:12:00,
2013-06-08 09:17:00,79.8,67.9,29.94,WSW,244,0.0,0.0,67,0.00,,---,0.00,VWS V14.01,2013-06-08 13:17:00,
2013-06-08 09:22:00,80.0,68.5,29.95,West,263,0.0,0.0,68,0.00,,---,0.00,VWS V14.01,2013-06-08 13:22:00,
2013-06-08 09:27:00,80.1,68.2,29.94,WSW,241,0.0,0.0,67,0.00,,---,0.00,VWS V14.01,2013-06-08 13:27:00,
2013-06-08 09:30:00,76.1,69.5,29.88,SW,232,0.0,0.0,80,0.00,,---,0.00,VWS V14.01,2013-06-08 13:30:00,
2013-06-08 09:32:00,80.3,68.3,29.94,SW,234,0.0,0.0,67,0.00,,---,0.00,VWS V14.01,2013-06-08 13:32:00,
2013-06-08 09:37:00,80.3,68.3,29.95,WSW,240,0.0,0.0,67,0.00,,---,0.00,VWS V14.01,2013-06-08 13:37:00,
2013-06-08 09:42:00,80.3,67.9,29.95,SW,232,0.0,0.0,66,0.00,,---,0.00,VWS V14.01,2013-06-08 13:42:00,
2013-06-08 09:47:00,80.5,68.1,29.95,WSW,237,0.0,0.0,66,0.00,,---,0.00,VWS V14.01,2013-06-08 13:47:00,
2013-06-08 09:52:00,80.7,68.3,29.95,West,263,0.0,0.0,66,0.00,,---,0.00,VWS V14.01,2013-06-08 13:52:00,
2013-06-08 09:57:00,80.9,68.5,29.95,West,271,0.0,0.0,66,0.00,,---,0.00,VWS V14.01,2013-06-08 13:57:00,
2013-06-08 10:00:00,76.5,69.9,29.89,SW,234,0.0,0.0,80,0.00,,---,0.00,VWS V14.01,2013-06-08 14:00:00,
2013-06-08 10:02:00,81.1,68.2,29.96,SSW,199,0.0,0.0,65,0.00,,---,0.00,VWS V14.01,2013-06-08 14:02:00,
2013-06-08 10:07:00,81.1,68.2,29.96,SW,236,0.0,0.0,65,0.00,,---,0.00,VWS V14.01,2013-06-08 14:07:00,
2013-06-08 10:12:00,81.2,68.3,29.96,SW,219,0.0,0.0,65,0.00,,---,0.00,VWS V14.01,2013-06-08 14:12:00,
2013-06-08 10:17:00,81.4,68.5,29.96,WNW,296,0.0,0.0,65,0.00,,---,0.00,VWS V14.01,2013-06-08 14:17:00,
2013-06-08 10:22:00,81.6,68.7,29.96,West,277,0.0,0.0,65,0.00,,---,0.00,VWS V14.01,2013-06-08 14:22:00,
2013-06-08 10:27:00,81.7,68.8,29.97,WSW,254,0.0,0.0,65,0.00,,---,0.00,VWS V14.01,2013-06-08 14:27:00,
2013-06-08 10:30:00,77.5,69.7,29.90,WSW,238,0.0,0.0,77,0.00,,---,0.00,VWS V14.01,2013-06-08 14:30:00,
2013-06-08 10:32:00,81.8,69.3,29.97,SW,236,0.0,0.0,66,0.00,,---,0.00,VWS V14.01,2013-06-08 14:32:00,
2013-06-08 10:37:00,81.9,68.5,29.97,WSW,258,0.0,0.0,64,0.00,,---,0.00,VWS V14.01,2013-06-08 14:37:00,
2013-06-08 10:42:00,81.5,68.6,29.97,SW,232,0.0,0.0,65,0.00,,---,0.00,VWS V14.01,2013-06-08 14:42:00,
2013-06-08 10:47:00,82.0,69.1,29.96,WSW,240,0.0,0.0,65,0.00,,---,0.00,VWS V14.01,2013-06-08 14:47:00,
2013-06-08 10:52:00,82.2,68.4,29.97,West,273,0.0,0.0,63,0.00,,---,0.00,VWS V14.01,2013-06-08 14:52:00,
2013-06-08 10:57:00,82.1,68.7,29.96,WSW,245,0.0,0.0,64,0.00,,---,0.00,VWS V14.01,2013-06-08 14:57:00,
2013-06-08 11:00:00,78.6,69.2,29.91,SW,224,0.0,0.0,73,0.00,,---,0.00,VWS V14.01,2013-06-08 15:00:00,
2013-06-08 11:02:00,82.3,68.5,29.97,SW,220,0.0,0.0,63,0.00,,---,0.00,VWS V14.01,2013-06-08 15:02:00,
2013-06-08 11:07:00,82.5,68.6,29.97,WNW,289,0.0,0.0,63,0.00,,---,0.00,VWS V14.01,2013-06-08 15:07:00,
2013-06-08 11:12:00,82.7,68.8,29.97,SW,217,0.0,0.0,63,0.00,,---,0.00,VWS V14.01,2013-06-08 15:12:00,
2013-06-08 11:17:00,82.9,68.6,29.97,SW,215,0.0,0.0,62,0.00,,---,0.00,VWS V14.01,2013-06-08 15:17:00,
2013-06-08 11:22:00,83.0,68.7,29.97,WNW,285,0.0,0.0,62,0.00,,---,0.00,VWS V14.01,2013-06-08 15:22:00,
2013-06-08 11:27:00,83.2,68.4,29.97,SW,217,0.0,0.0,61,0.00,,---,0.00,VWS V14.01,2013-06-08 15:27:00,
2013-06-08 11:30:00,79.3,68.3,29.92,SW,230,0.0,0.0,69,0.00,,---,0.00,VWS V14.01,2013-06-08 15:30:00,
2013-06-08 11:32:00,83.3,69.4,29.97,SW,215,0.0,0.0,63,0.00,,---,0.00,VWS V14.01,2013-06-08 15:32:00,
2013-06-08 11:37:00,83.1,68.7,29.98,West,271,0.0,0.0,62,0.00,,---,0.00,VWS V14.01,2013-06-08 15:37:00,
2013-06-08 11:42:00,83.3,68.9,29.98,West,266,0.0,0.0,62,0.00,,---,0.00,VWS V14.01,2013-06-08 15:42:00,
2013-06-08 11:47:00,83.7,69.3,29.98,WNW,301,0.0,0.0,62,0.00,,---,0.00,VWS V14.01,2013-06-08 15:47:00,
2013-06-08 11:52:00,83.8,68.9,29.98,WNW,302,0.0,0.0,61,0.00,,---,0.00,VWS V14.01,2013-06-08 15:52:00,
2013-06-08 11:57:00,83.9,69.5,29.98,SW,232,0.0,0.0,62,0.00,,---,0.00,VWS V14.01,2013-06-08 15:57:00,
2013-06-08 12:00:00,79.8,68.3,29.94,WSW,246,0.0,0.0,68,0.00,,---,0.00,VWS V14.01,2013-06-08 16:00:00,
2013-06-08 12:02:00,83.8,69.4,29.98,SW,233,0.0,0.0,62,0.00,,---,0.00,VWS V14.01,2013-06-08 16:02:00,
2013-06-08 12:07:00,83.7,69.3,29.98,NW,309,0.0,0.0,62,0.00,,---,0.00,VWS V14.01,2013-06-08 16:07:00,
2013-06-08 12:12:00,83.9,69.5,29.98,West,281,0.0,0.0,62,0.00,,---,0.00,VWS V14.01,2013-06-08 16:12:00,
2013-06-08 12:17:00,84.0,69.1,29.98,SW,236,0.0,0.0,61,0.00,,---,0.00,VWS V14.01,2013-06-08 16:17:00,
2013-06-08 12:22:00,84.4,69.5,29.98,WSW,248,0.0,0.0,61,0.00,,---,0.00,VWS V14.01,2013-06-08 16:22:00,
2013-06-08 12:27:00,85.1,74.6,29.98,WNW,284,2.0,5.0,71,0.00,,---,0.00,VWS V14.01,2013-06-08 16:27:00,
2013-06-08 12:30:00,80.2,68.3,29.94,WSW,245,0.0,0.0,67,0.00,,---,0.00,VWS V14.01,2013-06-08 16:30:00,
2013-06-08 12:32:00,85.4,74.9,29.98,WNW,293,2.0,4.0,71,0.00,,---,0.00,VWS V14.01,2013-06-08 16:32:00,
2013-06-08 12:37:00,85.3,74.8,29.97,WNW,295,2.0,7.0,71,0.00,,---,0.00,VWS V14.01,2013-06-08 16:37:00,
2013-06-08 12:42:00,85.0,74.1,29.98,WNW,294,1.0,10.0,70,0.00,,---,0.00,VWS V14.01,2013-06-08 16:42:00,
2013-06-08 12:47:00,85.0,75.0,29.98,NW,306,0.0,10.0,72,0.00,,---,0.00,VWS V14.01,2013-06-08 16:47:00,
2013-06-08 12:52:00,85.3,74.0,29.97,WNW,300,0.0,10.0,69,0.00,,---,0.00,VWS V14.01,2013-06-08 16:52:00,
2013-06-08 12:57:00,85.6,74.7,29.97,NW,312,5.0,10.0,70,0.00,,---,0.00,VWS V14.01,2013-06-08 16:57:00,
2013-06-08 13:00:00,81.0,68.6,29.95,WNW,284,0.0,0.0,66,0.00,,---,0.00,VWS V14.01,2013-06-08 17:00:00,
2013-06-08 13:02:00,86.0,75.1,29.97,West,264,2.0,4.0,70,0.00,,---,0.00,VWS V14.01,2013-06-08 17:02:00,
2013-06-08 13:07:00,86.2,74.4,29.97,WNW,299,4.0,6.0,68,0.00,,---,0.00,VWS V14.01,2013-06-08 17:07:00,
2013-06-08 13:12:00,85.6,74.3,29.97,WNW,302,5.0,6.0,69,0.00,,---,0.00,VWS V14.01,2013-06-08 17:12:00,
2013-06-08 13:17:00,85.3,74.0,29.97,WNW,294,4.0,7.0,69,0.00,,---,0.00,VWS V14.01,2013-06-08 17:17:00,
2013-06-08 13:22:00,85.5,74.2,29.97,NW,312,4.0,9.0,69,0.00,,---,0.00,VWS V14.01,2013-06-08 17:22:00,
2013-06-08 13:27:00,85.8,74.9,29.97,West,281,0.0,9.0,70,0.00,,---,0.00,VWS V14.01,2013-06-08 17:27:00,
2013-06-08 13:30:00,81.7,68.8,29.97,West,261,0.0,0.0,65,0.00,,---,0.00,VWS V14.01,2013-06-08 17:30:00,
2013-06-08 13:32:00,85.7,74.4,29.97,WNW,296,2.0,2.0,69,0.00,,---,0.00,VWS V14.01,2013-06-08 17:32:00,
2013-06-08 13:37:00,86.4,74.2,29.97,NW,317,3.0,7.0,67,0.00,,---,0.00,VWS V14.01,2013-06-08 17:37:00,
2013-06-08 13:42:00,86.8,74.5,29.97,WNW,292,2.0,7.0,67,0.00,,---,0.00,VWS V14.01,2013-06-08 17:42:00,
2013-06-08 13:47:00,87.2,74.0,29.97,West,271,2.0,10.0,65,0.00,,---,0.00,VWS V14.01,2013-06-08 17:47:00,
2013-06-08 13:52:00,87.2,74.0,29.97,NW,305,5.0,10.0,65,0.00,,---,0.00,VWS V14.01,2013-06-08 17:52:00,
2013-06-08 13:57:00,87.4,73.7,29.97,WNW,295,6.0,10.0,64,0.00,,---,0.00,VWS V14.01,2013-06-08 17:57:00,
2013-06-08 14:00:00,82.2,68.4,29.97,WSW,252,0.0,0.0,63,0.00,,---,0.00,VWS V14.01,2013-06-08 18:00:00,
2013-06-08 14:02:00,86.6,73.9,29.97,NW,308,6.0,10.0,66,0.00,,---,0.00,VWS V14.01,2013-06-08 18:02:00,
2013-06-08 14:07:00,87.1,73.9,29.97,NW,313,1.0,10.0,65,0.00,,---,0.00,VWS V14.01,2013-06-08 18:07:00,
2013-06-08 14:12:00,87.0,74.3,29.97,WNW,298,4.0,10.0,66,0.00,,---,0.00,VWS V14.01,2013-06-08 18:12:00,
2013-06-08 14:17:00,87.1,75.3,29.97,NW,321,0.0,10.0,68,0.00,,---,0.00,VWS V14.01,2013-06-08 18:17:00,
2013-06-08 14:22:00,87.0,74.3,29.97,NW,305,3.0,10.0,66,0.00,,---,0.00,VWS V14.01,2013-06-08 18:22:00,
2013-06-08 14:27:00,87.6,76.6,29.97,ESE,121,3.0,10.0,70,0.00,,---,0.00,VWS V14.01,2013-06-08 18:27:00,
2013-06-08 14:30:00,83.2,68.8,29.97,SW,228,0.0,0.0,62,0.00,,---,0.00,VWS V14.01,2013-06-08 18:30:00,
2013-06-08 14:32:00,85.4,76.6,29.97,WNW,284,2.0,3.0,75,0.00,,---,0.00,VWS V14.01,2013-06-08 18:32:00,
2013-06-08 14:37:00,84.4,77.2,29.97,West,263,0.0,9.0,79,0.00,,---,0.00,VWS V14.01,2013-06-08 18:37:00,
2013-06-08 14:42:00,83.7,76.9,29.97,East,93,2.0,11.0,80,0.00,,---,0.00,VWS V14.01,2013-06-08 18:42:00,
2013-06-08 14:47:00,83.3,77.2,29.98,NNE,19,3.0,11.0,82,0.00,,---,0.00,VWS V14.01,2013-06-08 18:47:00,
2013-06-08 14:52:00,82.7,77.0,29.98,West,263,4.0,11.0,83,0.00,,---,0.00,VWS V14.01,2013-06-08 18:52:00,
2013-06-08 14:57:00,82.7,77.4,29.98,North,5,2.0,11.0,84,0.00,,---,0.00,VWS V14.01,2013-06-08 18:57:00,
2013-06-08 15:00:00,83.8,68.9,29.98,SW,227,0.0,0.0,61,0.00,,---,0.00,VWS V14.01,2013-06-08 19:00:00,
2013-06-08 15:02:00,83.0,77.3,29.98,SE,136,2.0,5.0,83,0.00,,---,0.00,VWS V14.01,2013-06-08 19:02:00,
2013-06-08 15:07:00,83.2,77.5,29.98,NE,55,5.0,6.0,83,0.00,,---,0.00,VWS V14.01,2013-06-08 19:07:00,
2013-06-08 15:12:00,83.4,77.7,29.98,SE,130,2.0,9.0,83,0.00,,---,0.00,VWS V14.01,2013-06-08 19:12:00,
2013-06-08 15:17:00,83.5,77.4,29.98,NW,306,3.0,9.0,82,0.00,,---,0.00,VWS V14.01,2013-06-08 19:17:00,
2013-06-08 15:22:00,83.3,77.2,29.98,NNE,15,0.0,11.0,82,0.00,,---,0.00,VWS V14.01,2013-06-08 19:22:00,
2013-06-08 15:27:00,82.9,76.5,29.97,North,360,3.0,11.0,81,0.00,,---,0.00,VWS V14.01,2013-06-08 19:27:00,
2013-06-08 15:30:00,85.1,74.6,29.98,WNW,295,0.0,6.0,71,0.00,,---,0.00,VWS V14.01,2013-06-08 19:30:00,
2013-06-08 15:32:00,82.1,76.8,29.98,South,175,0.0,7.0,84,0.00,,---,0.00,VWS V14.01,2013-06-08 19:32:00,
2013-06-08 15:37:00,81.6,76.3,29.98,East,81,3.0,7.0,84,0.00,,---,0.00,VWS V14.01,2013-06-08 19:37:00,
2013-06-08 15:42:00,81.3,76.4,29.98,NE,38,1.0,7.0,85,0.00,,---,0.00,VWS V14.01,2013-06-08 19:42:00,
2013-06-08 15:47:00,81.2,76.3,29.98,NNE,31,1.0,7.0,85,0.00,,---,0.00,VWS V14.01,2013-06-08 19:47:00,
2013-06-08 15:52:00,81.2,76.6,29.98,South,171,0.0,7.0,86,0.00,,---,0.00,VWS V14.01,2013-06-08 19:52:00,
2013-06-08 15:57:00,82.2,77.6,29.98,ESE,112,2.0,8.0,86,0.00,,---,0.00,VWS V14.01,2013-06-08 19:57:00,
2013-06-08 16:00:00,85.6,74.7,29.98,ENE,76,1.0,10.0,70,0.00,,---,0.00,VWS V14.01,2013-06-08 20:00:00,
2013-06-08 16:02:00,83.1,77.8,29.98,NNE,30,2.0,8.0,84,0.00,,---,0.00,VWS V14.01,2013-06-08 20:02:00,
2013-06-08 16:07:00,83.1,77.8,29.97,NNE,30,3.0,9.0,84,0.00,,---,0.00,VWS V14.01,2013-06-08 20:07:00,
2013-06-08 16:12:00,83.1,77.4,29.97,WSW,245,0.0,9.0,83,0.00,,---,0.00,VWS V14.01,2013-06-08 20:12:00,
2013-06-08 16:17:00,83.9,78.2,29.97,ENE,78,1.0,9.0,83,0.00,,---,0.00,VWS V14.01,2013-06-08 20:17:00,
2013-06-08 16:22:00,84.0,77.9,29.97,NNW,336,2.0,9.0,82,0.00,,---,0.00,VWS V14.01,2013-06-08 20:22:00,
2013-06-08 16:27:00,83.9,77.4,29.98,SW,216,3.0,9.0,81,0.00,,---,0.00,VWS V14.01,2013-06-08 20:27:00,
2013-06-08 16:30:00,85.7,73.9,29.97,WNW,297,1.0,9.0,68,0.00,,---,0.00,VWS V14.01,2013-06-08 20:30:00,
2013-06-08 16:32:00,83.3,77.2,29.97,SSE,166,3.0,7.0,82,0.00,,---,0.00,VWS V14.01,2013-06-08 20:32:00,
2013-06-08 16:37:00,82.7,77.4,29.98,NE,49,1.0,7.0,84,0.00,,---,0.00,VWS V14.01,2013-06-08 20:37:00,
2013-06-08 16:42:00,82.4,77.1,29.97,East,88,0.0,10.0,84,0.00,,---,0.00,VWS V14.01,2013-06-08 20:42:00,
2013-06-08 16:47:00,82.1,77.2,29.98,NE,49,1.0,10.0,85,0.00,,---,0.00,VWS V14.01,2013-06-08 20:47:00,
2013-06-08 16:52:00,82.0,77.4,29.98,East,88,1.0,10.0,86,0.00,,---,0.00,VWS V14.01,2013-06-08 20:52:00,
2013-06-08 16:57:00,82.1,77.5,29.97,SSE,155,0.0,10.0,86,0.00,,---,0.00,VWS V14.01,2013-06-08 20:57:00,
2013-06-08 17:00:00,86.9,73.7,29.97,NW,304,10.0,11.0,65,0.00,,---,0.00,VWS V14.01,2013-06-08 21:00:00,
2013-06-08 17:02:00,82.0,77.4,29.98,SW,232,1.0,3.0,86,0.00,,---,0.00,VWS V14.01,2013-06-08 21:02:00,
2013-06-08 17:07:00,81.6,77.4,29.98,NNE,20,2.0,6.0,87,0.00,,---,0.00,VWS V14.01,2013-06-08 21:07:00,
2013-06-08 17:12:00,81.2,77.0,29.98,SW,223,3.0,6.0,87,0.00,,---,0.00,VWS V14.01,2013-06-08 21:12:00,
2013-06-08 17:17:00,81.0,77.1,29.97,East,98,3.0,6.0,88,0.00,,---,0.00,VWS V14.01,2013-06-08 21:17:00,
2013-06-08 17:22:00,80.9,77.0,29.98,East,94,2.0,6.0,88,0.00,,---,0.00,VWS V14.01,2013-06-08 21:22:00,
2013-06-08 17:27:00,80.9,77.4,29.97,SW,233,5.0,6.0,89,0.00,,---,0.00,VWS V14.01,2013-06-08 21:27:00,
2013-06-08 17:30:00,86.1,76.8,29.97,SSW,212,1.0,10.0,74,0.00,,---,0.00,VWS V14.01,2013-06-08 21:30:00,
2013-06-08 17:32:00,80.8,77.3,29.98,WSW,250,3.0,5.0,89,0.00,,---,0.00,VWS V14.01,2013-06-08 21:32:00,
2013-06-08 17:37:00,80.9,77.4,29.98,ESE,103,0.0,5.0,89,0.00,,---,0.00,VWS V14.01,2013-06-08 21:37:00,
2013-06-08 17:42:00,80.9,77.4,29.98,NW,308,4.0,5.0,89,0.00,,---,0.00,VWS V14.01,2013-06-08 21:42:00,
2013-06-08 17:47:00,80.8,77.3,29.98,SW,232,1.0,9.0,89,0.00,,---,0.00,VWS V14.01,2013-06-08 21:47:00,
2013-06-08 17:52:00,80.9,77.4,29.98,WNW,299,2.0,9.0,89,0.00,,---,0.00,VWS V14.01,2013-06-08 21:52:00,
2013-06-08 17:57:00,80.9,77.4,29.98,WSW,253,2.0,9.0,89,0.00,,---,0.00,VWS V14.01,2013-06-08 21:57:00,
2013-06-08 18:00:00,82.9,77.2,29.98,West,272,2.0,11.0,83,0.00,,---,0.00,VWS V14.01,2013-06-08 22:00:00,
2013-06-08 18:02:00,80.9,77.4,29.98,West,278,0.0,1.0,89,0.00,,---,0.00,VWS V14.01,2013-06-08 22:02:00,
2013-06-08 18:07:00,80.9,77.0,29.98,West,262,3.0,6.0,88,0.00,,---,0.00,VWS V14.01,2013-06-08 22:07:00,
2013-06-08 18:12:00,80.8,76.9,29.98,WSW,246,0.0,7.0,88,0.00,,---,0.00,VWS V14.01,2013-06-08 22:12:00,
2013-06-08 18:17:00,80.9,77.0,29.99,West,269,2.0,7.0,88,0.00,,---,0.00,VWS V14.01,2013-06-08 22:17:00,
2013-06-08 18:22:00,80.8,76.9,29.99,West,281,3.0,7.0,88,0.00,,---,0.00,VWS V14.01,2013-06-08 22:22:00,
2013-06-08 18:27:00,80.8,76.9,29.99,East,101,0.0,7.0,88,0.00,,---,0.00,VWS V14.01,2013-06-08 22:27:00,
2013-06-08 18:30:00,82.2,76.5,29.98,South,170,3.0,11.0,83,0.00,,---,0.00,VWS V14.01,2013-06-08 22:30:00,
2013-06-08 18:32:00,80.8,76.9,29.99,SE,130,0.0,2.0,88,0.00,,---,0.00,VWS V14.01,2013-06-08 22:32:00,
2013-06-08 18:37:00,81.0,77.1,29.99,SE,131,0.0,2.0,88,0.00,,---,0.00,VWS V14.01,2013-06-08 22:37:00,
2013-06-08 18:42:00,81.1,77.2,30.00,SE,127,1.0,4.0,88,0.00,,---,0.00,VWS V14.01,2013-06-08 22:42:00,
2013-06-08 18:47:00,81.1,76.9,30.00,East,98,0.0,4.0,87,0.00,,---,0.00,VWS V14.01,2013-06-08 22:47:00,
2013-06-08 18:52:00,81.1,76.9,30.00,ESE,102,0.0,5.0,87,0.00,,---,0.00,VWS V14.01,2013-06-08 22:52:00,
2013-06-08 18:57:00,81.1,77.2,30.00,East,94,0.0,5.0,88,0.00,,---,0.00,VWS V14.01,2013-06-08 22:57:00,
2013-06-08 19:00:00,83.0,77.7,29.97,East,96,3.0,8.0,84,0.00,,---,0.00,VWS V14.01,2013-06-08 23:00:00,
2013-06-08 19:02:00,81.1,77.2,30.01,NNE,29,1.0,2.0,88,0.00,,---,0.00,VWS V14.01,2013-06-08 23:02:00,
2013-06-08 19:07:00,81.1,77.2,30.01,SW,234,2.0,5.0,88,0.00,,---,0.00,VWS V14.01,2013-06-08 23:07:00,
2013-06-08 19:12:00,81.0,77.1,30.01,WNW,284,0.0,5.0,88,0.00,,---,0.00,VWS V14.01,2013-06-08 23:12:00,
2013-06-08 19:17:00,81.0,77.1,30.01,WNW,283,0.0,5.0,88,0.00,,---,0.00,VWS V14.01,2013-06-08 23:17:00,
2013-06-08 19:22:00,81.0,77.1,30.01,WSW,250,2.0,5.0,88,0.00,,---,0.00,VWS V14.01,2013-06-08 23:22:00,
2013-06-08 19:27:00,81.0,77.1,30.01,WSW,244,0.0,5.0,88,0.00,,---,0.00,VWS V14.01,2013-06-08 23:27:00,
2013-06-08 19:30:00,83.5,77.4,29.97,ESE,105,2.0,9.0,82,0.00,,---,0.00,VWS V14.01,2013-06-08 23:30:00,
2013-06-08 19:32:00,80.9,77.0,30.01,WSW,245,0.0,1.0,88,0.00,,---,0.00,VWS V14.01,2013-06-08 23:32:00,
2013-06-08 19:37:00,81.0,77.1,30.01,WSW,245,0.0,1.0,88,0.00,,---,0.00,VWS V14.01,2013-06-08 23:37:00,
2013-06-08 19:42:00,81.0,77.1,30.01,WSW,245,0.0,1.0,88,0.00,,---,0.00,VWS V14.01,2013-06-08 23:42:00,
2013-06-08 19:47:00,81.0,76.8,30.02,WSW,244,0.0,2.0,87,0.00,,---,0.00,VWS V14.01,2013-06-08 23:47:00,
2013-06-08 19:52:00,81.0,76.8,30.01,WSW,247,0.0,2.0,87,0.00,,---,0.00,VWS V14.01,2013-06-08 23:52:00,
2013-06-08 19:57:00,80.9,76.7,30.02,SW,235,0.0,3.0,87,0.00,,---,0.00,VWS V14.01,2013-06-08 23:57:00,
2013-06-08 20:00:00,82.0,77.4,29.97,ESE,120,2.0,10.0,86,0.00,,---,0.00,VWS V14.01,2013-06-09 00:00:00,
2013-06-08 20:02:00,80.9,76.7,30.02,SW,235,0.0,0.0,87,0.00,,---,0.00,VWS V14.01,2013-06-09 00:02:00,
2013-06-08 20:07:00,80.9,76.7,30.02,SW,235,0.0,0.0,87,0.00,,---,0.00,VWS V14.01,2013-06-09 00:07:00,
2013-06-08 20:12:00,80.9,76.7,30.03,SW,235,0.0,0.0,87,0.00,,---,0.00,VWS V14.01,2013-06-09 00:12:00,
2013-06-08 20:17:00,80.9,76.7,30.03,SW,235,0.0,0.0,87,0.00,,---,0.00,VWS V14.01,2013-06-09 00:17:00,
2013-06-08 20:22:00,80.9,76.7,30.03,SW,235,0.0,0.0,87,0.00,,---,0.00,VWS V14.01,2013-06-09 00:22:00,
2013-06-08 20:27:00,80.9,76.7,30.03,SW,235,0.0,0.0,87,0.00,,---,0.00,VWS V14.01,2013-06-09 00:27:00,
2013-06-08 20:30:00,80.9,77.4,29.98,ESE,123,0.0,6.0,89,0.00,,---,0.00,VWS V14.01,2013-06-09 00:30:00,
2013-06-08 20:32:00,80.9,76.7,30.03,SW,235,0.0,0.0,87,0.00,,---,0.00,VWS V14.01,2013-06-09 00:32:00,
2013-06-08 20:37:00,80.9,76.7,30.03,SW,235,0.0,0.0,87,0.00,,---,0.00,VWS V14.01,2013-06-09 00:37:00,
2013-06-08 20:42:00,80.9,76.7,30.03,SW,235,0.0,0.0,87,0.00,,---,0.00,VWS V14.01,2013-06-09 00:42:00,
2013-06-08 20:47:00,80.9,76.7,30.03,SW,235,0.0,0.0,87,0.00,,---,0.00,VWS V14.01,2013-06-09 00:47:00,
2013-06-08 20:52:00,80.9,76.7,30.04,SW,235,0.0,0.0,87,0.00,,---,0.00,VWS V14.01,2013-06-09 00:52:00,
2013-06-08 20:57:00,80.9,76.7,30.04,SW,235,0.0,0.0,87,0.00,,---,0.00,VWS V14.01,2013-06-09 00:57:00,
2013-06-08 21:00:00,80.9,77.4,29.98,WSW,250,1.0,9.0,89,0.00,,---,0.00,VWS V14.01,2013-06-09 01:00:00,
2013-06-08 21:02:00,80.9,76.7,30.04,SW,235,0.0,0.0,87,0.00,,---,0.00,VWS V14.01,2013-06-09 01:02:00,
2013-06-08 21:07:00,80.9,76.7,30.04,SW,235,0.0,0.0,87,0.00,,---,0.00,VWS V14.01,2013-06-09 01:07:00,
2013-06-08 21:12:00,80.9,76.7,30.04,SW,235,0.0,0.0,87,0.00,,---,0.00,VWS V14.01,2013-06-09 01:12:00,
2013-06-08 21:17:00,80.9,76.7,30.04,SW,235,0.0,0.0,87,0.00,,---,0.00,VWS V14.01,2013-06-09 01:17:00,
2013-06-08 21:22:00,80.9,76.7,30.05,SW,235,0.0,0.0,87,0.00,,---,0.00,VWS V14.01,2013-06-09 01:22:00,
2013-06-08 21:27:00,80.9,76.7,30.05,SW,235,0.0,0.0,87,0.00,,---,0.00,VWS V14.01,2013-06-09 01:27:00,
2013-06-08 21:30:00,80.8,76.9,29.99,ESE,117,1.0,7.0,88,0.00,,---,0.00,VWS V14.01,2013-06-09 01:30:00,
2013-06-08 21:32:00,80.9,76.7,30.05,SW,235,0.0,0.0,87,0.00,,---,0.00,VWS V14.01,2013-06-09 01:32:00,
2013-06-08 21:37:00,80.9,76.7,30.05,SW,235,0.0,0.0,87,0.00,,---,0.00,VWS V14.01,2013-06-09 01:37:00,
2013-06-08 21:42:00,80.9,76.7,30.05,SW,235,0.0,0.0,87,0.00,,---,0.00,VWS V14.01,2013-06-09 01:42:00,
2013-06-08 21:47:00,80.9,76.7,30.05,SW,235,0.0,0.0,87,0.00,,---,0.00,VWS V14.01,2013-06-09 01:47:00,
2013-06-08 21:52:00,80.9,76.7,30.06,SW,235,0.0,0.0,87,0.00,,---,0.00,VWS V14.01,2013-06-09 01:52:00,
2013-06-08 21:57:00,80.9,76.7,30.06,SW,235,0.0,0.0,87,0.00,,---,0.00,VWS V14.01,2013-06-09 01:57:00,
2013-06-08 22:00:00,81.1,77.2,30.00,West,263,2.0,5.0,88,0.00,,---,0.00,VWS V14.01,2013-06-09 02:00:00,
2013-06-08 22:02:00,80.9,76.7,30.06,SW,235,0.0,0.0,87,0.00,,---,0.00,VWS V14.01,2013-06-09 02:02:00,
2013-06-08 22:07:00,80.9,76.7,30.07,SW,235,0.0,0.0,87,0.00,,---,0.00,VWS V14.01,2013-06-09 02:07:00,
2013-06-08 22:12:00,80.9,76.7,30.07,SW,235,0.0,0.0,87,0.00,,---,0.00,VWS V14.01,2013-06-09 02:12:00,
2013-06-08 22:17:00,80.9,76.7,30.07,SW,235,0.0,0.0,87,0.00,,---,0.00,VWS V14.01,2013-06-09 02:17:00,
2013-06-08 22:22:00,80.9,76.7,30.07,SW,235,0.0,0.0,87,0.00,,---,0.00,VWS V14.01,2013-06-09 02:22:00,
2013-06-08 22:27:00,80.9,76.7,30.07,SW,235,0.0,0.0,87,0.00,,---,0.00,VWS V14.01,2013-06-09 02:27:00,
2013-06-08 22:30:00,81.0,77.1,30.01,WSW,245,0.0,5.0,88,0.00,,---,0.00,VWS V14.01,2013-06-09 02:30:00,
2013-06-08 22:32:00,80.9,76.7,30.08,SW,235,0.0,0.0,87,0.00,,---,0.00,VWS V14.01,2013-06-09 02:32:00,
2013-06-08 22:37:00,80.9,76.7,30.08,SW,235,0.0,0.0,87,0.00,,---,0.00,VWS V14.01,2013-06-09 02:37:00,
2013-06-08 22:42:00,80.9,76.7,30.08,SW,235,0.0,0.0,87,0.00,,---,0.00,VWS V14.01,2013-06-09 02:42:00,
2013-06-08 22:47:00,80.9,76.7,30.08,SW,235,0.0,0.0,87,0.00,,---,0.00,VWS V14.01,2013-06-09 02:47:00,
2013-06-08 22:52:00,80.9,76.7,30.08,SW,235,0.0,0.0,87,0.00,,---,0.00,VWS V14.01,2013-06-09 02:52:00,
2013-06-08 22:57:00,80.9,76.7,30.08,SW,235,0.0,0.0,87,0.00,,---,0.00,VWS V14.01,2013-06-09 02:57:00,
2013-06-08 23:00:00,80.9,76.7,30.02,SW,235,0.0,3.0,87,0.00,,---,0.00,VWS V14.01,2013-06-09 03:00:00,
2013-06-08 23:02:00,80.9,76.7,30.08,SW,235,0.0,0.0,87,0.00,,---,0.00,VWS V14.01,2013-06-09 03:02:00,
2013-06-08 23:07:00,80.9,76.7,30.08,SW,235,0.0,0.0,87,0.00,,---,0.00,VWS V14.01,2013-06-09 03:07:00,
2013-06-08 23:12:00,80.9,76.7,30.08,SW,235,0.0,0.0,87,0.00,,---,0.00,VWS V14.01,2013-06-09 03:12:00,
2013-06-08 23:17:00,80.9,76.7,30.08,SW,235,0.0,0.0,87,0.00,,---,0.00,VWS V14.01,2013-06-09 03:17:00,
2013-06-08 23:22:00,80.9,76.7,30.08,SW,235,0.0,0.0,87,0.00,,---,0.00,VWS V14.01,2013-06-09 03:22:00,
2013-06-08 23:27:00,80.9,76.7,30.08,SW,235,0.0,0.0,87,0.00,,---,0.00,VWS V14.01,2013-06-09 03:27:00,
2013-06-08 23:30:00,80.9,76.7,30.03,SW,235,0.0,0.0,87,0.00,,---,0.00,VWS V14.01,2013-06-09 03:30:00,
2013-06-08 23:32:00,80.9,76.7,30.08,SW,235,0.0,0.0,87,0.00,,---,0.00,VWS V14.01,2013-06-09 03:32:00,
2013-06-08 23:37:00,80.9,76.7,30.08,SW,235,0.0,0.0,87,0.00,,---,0.00,VWS V14.01,2013-06-09 03:37:00,
2013-06-08 23:42:00,80.9,76.7,30.08,SW,235,0.0,0.0,87,0.00,,---,0.00,VWS V14.01,2013-06-09 03:42:00,
2013-06-08 23:47:00,80.9,76.7,30.08,SW,235,0.0,0.0,87,0.00,,---,0.00,VWS V14.01,2013-06-09 03:47:00,
2013-06-08 23:52:00,80.9,76.7,30.08,SW,235,0.0,0.0,87,0.00,,---,0.00,VWS V14.01,2013-06-09 03:52:00,
2013-06-08 23:57:00,80.9,76.7,30.08,SW,235,0.0,0.0,87,0.00,,---,0.00,VWS V14.01,2013-06-09 03:57:00,